This is the latest recevied weather packets stored in our database for station/object WP4NYS-13. If no packets are shown the sender has not sent any weather packets the latest 1 day(s).
| Time | Temp. | Humidity | Pressure | Rain* | Wind** | Luminosity | Snow |
|---|---|---|---|---|---|---|---|
| 1777995289 | 28.33° C | 49% | 1018 hPa | 0 mm | 0.89 m/s, 277° | - | - |
| 1777994986 | 27.78° C | 51% | 1017.8 hPa | 0 mm | 0.45 m/s, 86° | - | - |
| 1777994683 | 27.78° C | 52% | 1018.3 hPa | 0 mm | 0.45 m/s, 78° | - | - |
| 1777994383 | 27.78° C | 52% | 1017.8 hPa | 0 mm | 0 m/s | - | - |
| 1777994079 | 28.33° C | 51% | 1017.7 hPa | 0 mm | 0.89 m/s, 253° | - | - |
| 1777993777 | 27.78° C | 55% | 1017.9 hPa | 0 mm | 0.45 m/s, 61° | - | - |
| 1777993474 | 26.67° C | 56% | 1018 hPa | 0 mm | 0.89 m/s, 245° | - | - |
| 1777993173 | 26.67° C | 57% | 1017.9 hPa | 0 mm | 0 m/s | - | - |
| 1777992871 | 26.67° C | 56% | 1017.9 hPa | 0 mm | 0.89 m/s, 130° | - | - |
| 1777992569 | 26.67° C | 57% | 1018.1 hPa | 0 mm | 0.89 m/s, 259° | - | - |
| 1777992267 | 26.11° C | 58% | 1018 hPa | 0 mm | 0 m/s | - | - |
| 1777991964 | 25.56° C | 59% | 1017.9 hPa | 0 mm | 0 m/s | - | - |
| 1777991662 | 25.56° C | 60% | 1018 hPa | 0 mm | 0.45 m/s, 223° | - | - |
| 1777991358 | 25.56° C | 60% | 1018 hPa | 0 mm | 1.34 m/s, 164° | - | - |
| 1777991056 | 25° C | 61% | 1017.9 hPa | 0 mm | 0.45 m/s, 73° | - | - |
| 1777990753 | 25° C | 61% | 1017.8 hPa | 0 mm | 0 m/s | - | - |
| 1777990450 | 25° C | 62% | 1017.7 hPa | 0 mm | 1.34 m/s, 151° | - | - |
| 1777990147 | 25° C | 61% | 1017.9 hPa | 0 mm | 0.45 m/s, 289° | - | - |
| 1777989843 | 24.44° C | 63% | 1017.7 hPa | 0 mm | 0 m/s | - | - |
| 1777989540 | 23.89° C | 63% | 1017.7 hPa | 0 mm | 0.45 m/s, 236° | - | - |
| 1777989237 | 23.89° C | 63% | 1017.7 hPa | 0 mm | 0.45 m/s, 95° | - | - |
| 1777988933 | 23.89° C | 63% | 1018 hPa | 0 mm | 0 m/s | - | - |
| 1777988630 | 23.89° C | 64% | 1017.8 hPa | 0 mm | 0 m/s | - | - |
| 1777988327 | 23.33° C | 65% | 1017.7 hPa | 0 mm | 0 m/s | - | - |
| 1777988024 | 23.33° C | 64% | 1017.5 hPa | 0 mm | 0.45 m/s, 125° | - | - |
* Rain latest hour (hover to see other rain measurements)
** Current wind speed in m/s (hover to see current wind gust speed)